Location: Unspecified
(0.0000°N, 0.0000°E)
Time: 16:47:17
(UTC+00:00)

DMSP B5D2-3 - Visible Passes

Search period start: 21 April 2019 00:00
Search period end: 01 May 2019 00:00
Orbit: 819 x 840 km, 98.7° (Epoch: 20 April)

Date Brightness Start Highest point End Pass type
(mag) Time Alt. Az. Time Alt. Az. Time Alt. Az.
21 Apr 6.8 05:32:17 10° SSE 05:37:22 41° ENE 05:42:25 10° N visible
21 Apr 5.7 18:13:00 10° N 18:18:17 65° WNW 18:23:38 10° SSW visible
22 Apr 7.7 05:15:05 10° SE 05:19:29 25° ENE 05:23:52 10° NNE visible
23 Apr 8.4 04:58:29 10° ESE 05:01:37 16° ENE 05:04:43 10° NE visible
23 Apr 8.7 19:21:18 10° WNW 19:22:30 11° WNW 19:23:42 10° W visible
24 Apr 8.1 19:01:01 10° NW 19:04:37 18° WNW 19:08:16 10° WSW visible
25 Apr 7.3 18:42:08 10° NNW 18:46:44 30° WNW 18:51:24 10° SW visible
26 Apr 6.3 18:23:42 10° N 18:28:51 48° WNW 18:34:03 10° SSW visible
27 Apr 7.2 05:25:13 10° SE 05:30:03 34° ENE 05:34:51 10° NNE visible
28 Apr 8.1 05:08:12 10° SE 05:12:10 21° ENE 05:16:06 10° NNE visible
29 Apr 8.6 04:52:06 10° E 04:54:17 12° ENE 04:56:28 10° NE visible
29 Apr 8.4 19:12:35 10° NW 19:15:11 14° WNW 19:17:47 10° WSW visible
30 Apr 7.8 18:53:11 10° NNW 18:57:17 23° WNW 19:01:26 10° SW visible
